939  
ASUS41 KBOX 150410  
RWRBOX  
 
REGIONAL WEATHER ROUNDUP  
NATIONAL WEATHER SERVICE BOSTON/NORTON MA  
1200 AM EDT WED AUG 15 2018  
 
NOTE: "FAIR" INDICATES FEW OR NO CLOUDS BELOW 12,000 FEET WITH NO  
SIGNIFICANT WEATHER AND/OR S TO VISIBILITY
.  
 
MAZALL-150500-  
EASTERN MASSACHUSETTS  
 
CITY SKY/WX TMP DP RH WIND PRES REMARKS
 
BOSTON FAIR 73 69 87 SW9 29.83F  
BEVERLY FAIR 69 68 96 S5 29.83S  
LAWRENCE FOG 70 67 90 CALM 29.86R VSB 1/2  
BEDFORD FAIR 67 65 93 CALM 29.83S  
BLUE HILL N/A 69 69 100 S12 29.85S  
NORWOOD FAIR 72 69 90 CALM 29.83S  
MARSHFIELD FAIR 73 72 94 CALM 29.84F  
PLYMOUTH FAIR 73 70 90 VRB3 29.85F  
TAUNTON FAIR 71 69 93 SE5 29.84F  
NEW BEDFORD FAIR 72 72 100 CALM 29.84F  

 
 
MAZALL-150500-  
CAPE COD AND THE ISLANDS  
 
CITY SKY/WX TMP DP RH WIND PRES REMARKS
 
FALMOUTH FAIR 72 70 94 SW7 29.86F  
HYANNIS FAIR 77 71 82 S12 29.85S  
CHATHAM FAIR 74 70 87 SW6 29.88R  
PROVINCETOWN FAIR 71 69 93 S8 29.86S  
NANTUCKET FAIR 72 70 93 S10 29.87F  
MARTHAS VNYRD FAIR 73 72 96 CALM 29.86S  

 
 
MAZALL-150500-  
CENTRAL AND WESTERN MASSACHUSETTS  
 
CITY SKY/WX TMP DP RH WIND PRES REMARKS
 
WORCESTER CLOUDY 68 68 100 S7 29.87S FOG  
FITCHBURG MOCLDY 69 69 100 CALM 29.85S  
ORANGE CLOUDY 70 69 97 CALM 29.86S  
SPRINGFIELD FAIR 70 68 94 CALM 29.82F  
WESTFIELD FAIR 70 70 100 CALM 29.83S  
NORTH ADAMS FAIR 66 65 96 CALM 29.85R  
PITTSFIELD MOCLDY 67 64 90 CALM 29.86R  

 
 
RIZALL-150500-  
RHODE ISLAND  
 
CITY SKY/WX TMP DP RH WIND PRES REMARKS
 
PROVIDENCE FAIR 72 70 93 S3 29.84F  
NEWPORT FAIR 73 67 81 SW5 29.85S  
BLOCK ISLAND FAIR 72 69 90 SW9 29.86S  
SMITHFIELD FAIR 69 69 100 CALM 29.86F  
WESTERLY FAIR 74 69 85 SW7 29.85S  

 
 
CTZALL-150500-  
CONNECTICUT  
 
CITY SKY/WX TMP DP RH WIND PRES REMARKS
 
BRADLEY INTL MOCLDY 72 69 90 SW3 29.83S  
HARTFORD FAIR 72 68 87 SE3 29.83R  
BRIDGEPORT FAIR 74 69 85 SW10 29.83F  
DANBURY FAIR 68 67 96 W6 29.86S  
GROTON FAIR 72 68 87 SW5 29.84S  
NEW HAVEN FAIR 75 70 84 SW8 29.83F  
CHESTER FAIR 70 68 94 CALM 29.85S  
MERIDEN FAIR 71 67 87 CALM 29.83F  
WILLIMANTIC FAIR 72 70 93 CALM 29.84F  
OXFORD CLOUDY 68 68 100 VRB3 29.86S  

 
 
MEZ002-015-021-024-NHZ003-005-008-011-012-014-VTZ005-008-150500-  
NORTHERN NEW ENGLAND  
 
CITY SKY/WX TMP DP RH WIND PRES REMARKS
 
PORTLAND ME CLOUDY 70 69 97 CALM 29.84F  
BANGOR ME FOG 70 69 97 S6 29.86F VSB 3/4  
CONCORD NH CLOUDY 70 69 97 CALM 29.84F  
MANCHESTER NH MOCLDY 71 69 93 CALM 29.83S  
NASHUA NH FAIR 67 67 100 CALM 29.85S FOG  
PORTSMOUTH NH CLOUDY 70 69 98 W3 29.82F FOG  
JAFFREY NH CLOUDY 69 69 100 CALM 29.88S  
KEENE NH FAIR N/A N/A N/A SW3 29.85S  
BURLINGTON VT FAIR 72 65 78 S5 29.81R  
MT. WASHINGTON MOCLDY 54 48 82 SW10 N/A  

 
 
NYZ052-076-150500-  
EASTERN NEW YORK  
 
CITY SKY/WX TMP DP RH WIND PRES REMARKS
 
ALBANY CLOUDY 72 67 84 N5 29.83S  
NEW YORK CITY MOCLDY 74 66 76 SW9 29.84S  

 
 
ANZALL-150500-  
MARINE OBSERVATIONS  
 
STATION/POSITION TIME TEMP WIND PRES VSBY WAVE
 
AIR SEA DIR/SP/G HT/PER  
(UTC) (F) (DEG/KT/KT) (MB) (MI) (FT/S)  
BOSTON BUOY 0350 71 72 170/ 6/ 8 1009.8F 1/ 6  
BUZZARDS BAY 0300 75 220/ 9/ 9 1011.3F  
NANTUCKET SOUND 0350 75 77 200/ 14/ 16 1010.9S 1/ 2  
MASS BAY-STELLWA 0304 71 67 200/ 10/ 10 1008.7R 1 7/8 2/ 6  
ISLE OF SHOALS 0300 70 280/ 4/ 5 1009.8R  
S OF BLOCK IS 0343 77 N/A 5/ 6  

 
   
.....................KEY......................
 
 
SKY/WX - SKY CONDITION/PRESENT WEATHER  
TMP - TEMPERATURE IN FAHRENHEIT  
DWPT - DEWPOINT IN FAHRENHEIT  
RH - RELATIVE HUMIDITY IN PERCENT  
WIND - DIRECTION AND SPEED IN MPH  
PRES - MEAN SEA LEVEL PRESSURE IN INCHES OF HG  
WCI - WIND CHILL INDEX  
VSB - VISIBILITY IN MILES  
HX - HEAT INDEX  
TC - TEMPERATURE IN CELSIUS  
VRB - VARIABLE WIND DIRECTION  
N/A - NOT AVAILABLE  
 
 
CLICK HERE TO GO TO PREVIOUS BULLETINS.

The Nexlab MA Page
The Nexlab RI Page
The Nexlab NH Page
The Nexlab CT Page Main Text Page